Date,TemperatureHighF,TemperatureAvgF,TemperatureLowF,DewpointHighF,DewpointAvgF,DewpointLowF,HumidityHigh,HumidityAvg,HumidityLow,PressureMaxIn,PressureMinIn,WindSpeedMaxMPH,WindSpeedAvgMPH,GustSpeedMaxMPH,PrecipitationSumIn
2014-1-1,67,51,37,52,39,24,84,64,52,29.94,28.88,22,5,22,0.00
2014-1-2,53,42,33,46,24,16,80,48,37,0.00,40.00,17,5,17,0.00
2014-1-3,56,41,26,36,18,-9,77,46,7,0.00,40.00,15,4,15,0.00
2014-1-4,68,57,43,53,45,35,86,68,44,0.00,40.00,26,8,26,0.00
2014-1-5,58,44,32,54,27,11,85,54,38,29.53,29.24,22,7,22,0.00
2014-1-6,34,27,20,11,6,1,46,41,35,29.83,29.53,20,4,20,0.00
2014-1-7,45,34,22,22,1,-12,47,29,9,29.68,29.41,13,4,14,0.00
2014-1-8,53,45,38,52,42,22,95,88,49,29.41,29.20,13,3,13,0.00
2014-1-9,70,59,53,63,56,52,96,90,64,29.26,29.12,15,3,15,0.00
2014-1-10,71,65,58,61,58,54,93,80,59,29.12,28.88,24,7,24,0.00
2014-1-11,73,59,47,54,40,27,92,55,22,29.26,28.97,9,3,9,0.00
2014-1-12,64,58,48,59,43,28,87,58,41,29.20,29.00,20,5,20,0.00
2014-1-13,67,58,44,60,30,-12,92,45,4,29.24,28.97,23,6,23,0.00
2014-1-14,74,52,34,35,12,-20,54,29,2,29.44,29.12,23,4,23,0.00
2014-1-15,62,49,35,27,20,13,45,33,19,29.56,29.24,13,4,13,0.00
2014-1-16,71,56,44,32,25,20,38,32,22,29.29,29.15,13,3,13,0.00
2014-1-17,62,52,44,28,9,-11,39,21,5,29.47,29.29,15,4,15,0.00
2014-1-18,68,53,38,39,28,16,55,39,34,29.35,29.18,18,3,18,0.00
2014-1-19,71,53,38,37,31,24,74,47,22,29.44,29.20,10,2,10,0.00
2014-1-20,80,63,51,50,25,-20,71,33,2,29.29,28.97,24,6,24,0.00
2014-1-21,61,52,40,23,17,-4,45,26,7,29.53,29.29,19,4,24,0.00
2014-1-22,67,52,36,33,15,-12,45,30,4,29.32,29.09,15,3,15,0.00
2014-1-23,53,39,24,38,26,15,73,60,43,29.77,29.15,21,6,21,0.00
2014-1-24,39,30,23,18,14,8,71,52,41,29.77,29.41,15,4,15,0.00
2014-1-25,67,45,25,36,26,17,74,51,29,29.41,29.12,11,2,11,0.04
2014-1-26,76,60,46,43,36,28,51,42,25,29.12,28.79,17,4,17,0.00
2014-1-27,57,44,31,39,19,-13,69,40,11,29.35,28.94,22,6,22,0.00
2014-1-28,39,30,24,15,10,6,53,43,33,29.53,29.32,15,5,15,0.00
2014-1-29,47,34,23,19,10,-8,56,38,10,29.56,29.32,14,3,14,0.00
2014-1-30,62,47,31,50,34,12,84,60,41,29.32,29.00,17,8,20,0.00
2014-1-31,77,63,54,60,53,50,91,72,40,29.09,28.91,20,8,20,0.00
2014-2-1,72,66,52,60,57,37,84,73,56,29.06,28.88,20,6,20,0.00
2014-2-2,52,39,33,39,31,26,76,73,57,29.32,29.00,17,7,17,0.00
2014-2-3,43,37,32,37,31,26,89,79,71,29.32,29.06,14,4,14,0.00
2014-2-4,63,48,40,45,41,37,94,78,49,29.20,28.97,13,3,13,0.08
2014-2-5,48,37,28,40,24,12,78,59,45,29.56,29.20,17,7,17,0.00
2014-2-6,29,26,22,13,11,8,54,52,51,29.59,29.44,17,5,17,0.00
2014-2-7,35,30,26,26,19,11,71,62,53,29.44,29.32,8,2,8,0.00
2014-2-8,68,49,34,44,36,26,89,64,35,29.32,29.12,17,4,17,0.12
2014-2-9,77,58,42,52,45,36,82,65,34,29.20,29.03,15,4,15,0.12
2014-2-10,57,39,31,51,34,27,86,81,71,29.32,29.15,16,6,16,0.12
2014-2-11,33,32,31,29,27,12,87,83,50,29.38,29.26,17,5,17,0.12
2014-2-12,54,41,31,33,28,26,80,62,43,29.35,29.18,15,4,15,0.12
2014-2-13,68,50,32,38,32,24,77,53,33,29.18,29.00,15,4,15,0.12
2014-2-14,81,61,48,47,36,21,74,43,20,29.20,28.97,20,4,20,0.12
2014-2-15,74,56,40,49,31,18,74,40,25,29.29,29.12,17,4,17,0.12
2014-2-16,73,62,57,61,57,49,93,83,61,29.18,29.06,15,5,15,0.12
2014-2-17,76,67,60,63,48,26,93,58,23,29.24,29.06,20,5,20,0.12
2014-2-18,78,64,50,61,46,26,88,54,27,29.24,29.00,17,4,17,0.12
2014-2-19,77,66,60,63,60,56,95,83,50,29.06,28.85,21,6,21,0.12
2014-2-20,80,68,52,65,48,15,88,57,10,29.21,28.82,20,7,20,0.12
2014-2-21,68,55,40,32,19,-12,49,29,4,29.29,29.12,15,4,15,0.12
2014-2-22,73,60,47,57,42,24,78,52,32,29.15,28.97,17,6,17,0.00
2014-2-23,84,68,59,61,54,39,91,63,32,29.18,29.00,12,4,14,0.00
2014-2-24,74,61,51,59,49,39,87,64,49,29.20,29.09,13,3,13,0.00
2014-2-25,66,59,49,65,58,48,96,94,88,29.15,29.06,12,4,12,0.00
2014-2-26,49,39,32,48,30,20,95,71,49,29.35,29.15,19,6,19,0.51
2014-2-27,57,42,27,32,27,21,79,56,37,29.29,29.00,12,3,13,0.00
2014-2-28,83,60,42,53,44,29,84,57,34,29.00,28.85,14,5,14,0.00
2014-3-1,80,66,53,65,56,45,91,70,49,29.12,29.00,15,5,15,0.00
2014-3-2,70,46,25,65,41,18,91,84,72,29.38,29.03,18,6,18,0.04
2014-3-3,43,31,21,23,16,9,75,56,42,29.47,29.32,20,6,20,0.04
2014-3-4,51,38,30,39,30,22,86,75,58,29.32,29.12,10,2,10,0.16
2014-3-5,57,45,37,44,39,34,92,80,61,29.26,29.06,12,3,12,0.00
2014-3-6,62,50,40,42,38,33,88,67,45,29.35,29.18,15,4,15,0.00
2014-3-7,65,54,41,47,41,34,79,63,47,29.18,28.97,17,6,17,0.00
2014-3-8,61,53,43,58,48,36,93,84,62,29.38,29.00,15,5,15,0.39
2014-3-9,61,48,38,44,37,30,78,67,52,29.44,29.29,13,4,13,0.63
2014-3-10,71,57,47,57,50,42,90,76,60,29.32,29.03,13,3,13,0.00
2014-3-11,84,67,55,61,54,49,93,68,37,29.03,28.70,15,6,15,0.00
2014-3-12,68,56,48,49,22,-10,51,32,5,29.38,28.85,20,8,23,0.00
2014-3-13,67,53,38,34,26,18,52,36,25,29.41,29.20,13,3,13,0.00
2014-3-14,72,60,49,56,47,30,81,64,41,29.20,29.06,15,6,15,0.00
2014-3-15,73,65,62,65,60,56,95,85,70,29.12,28.79,14,4,14,0.00
2014-3-16,67,56,48,57,42,29,88,60,41,29.18,28.82,25,7,25,0.00
2014-3-17,67,53,39,35,28,22,50,39,25,29.15,28.85,22,5,22,0.00
2014-3-18,83,65,50,52,39,26,64,39,28,28.97,28.79,20,8,20,0.00
2014-3-19,70,60,51,53,35,26,73,39,27,29.29,28.88,18,5,18,0.00
2014-3-20,76,59,41,41,35,28,69,43,26,29.35,28.88,10,3,13,0.63
2014-3-21,79,67,56,58,50,35,74,55,38,29.15,28.97,24,7,24,0.63
2014-3-22,74,67,60,66,61,51,94,81,69,29.15,29.00,12,4,12,0.63
2014-3-23,60,53,46,51,40,30,72,61,47,29.35,29.15,20,6,20,0.63
2014-3-24,66,56,48,45,41,35,68,57,46,29.35,29.12,9,2,9,0.63
2014-3-25,67,56,43,44,38,31,86,54,34,29.44,29.24,14,4,14,0.00
2014-3-26,64,59,54,53,43,30,75,58,38,29.29,29.03,29,8,29,0.00
2014-3-27,82,68,59,70,62,53,95,80,55,29.03,28.85,17,7,17,0.00
2014-3-28,87,73,64,66,60,47,91,67,31,29.15,28.85,18,5,18,0.00
2014-3-29,77,64,50,47,38,30,64,42,21,29.38,29.15,12,4,12,0.63
2014-3-30,78,64,49,47,40,31,60,41,32,29.32,29.09,21,6,21,0.00
2014-3-31,82,70,59,58,54,46,78,60,41,29.12,28.94,16,8,20,0.00
2014-4-1,85,73,65,66,62,57,92,71,47,29.12,28.94,20,7,20,0.00
2014-4-2,81,74,70,68,66,63,86,75,62,29.00,28.85,24,8,24,0.00
2014-4-3,82,75,70,68,67,65,87,77,61,28.97,28.79,20,7,20,0.00
2014-4-4,72,63,52,68,34,28,88,35,23,29.26,28.97,17,6,17,0.00
2014-4-5,64,58,53,40,35,30,47,41,36,29.20,28.97,14,3,14,0.00
2014-4-6,60,54,51,50,47,40,90,78,47,29.00,28.88,13,4,13,0.35
2014-4-7,72,57,50,52,48,43,90,76,45,29.18,28.91,48,2,48,0.31
2014-4-8,75,61,48,49,39,17,92,53,16,29.32,29.15,22,5,22,0.00
2014-4-9,84,67,49,48,39,31,54,37,21,29.35,29.18,17,5,17,0.00
2014-4-10,86,71,61,55,50,44,76,50,30,29.24,29.03,23,9,23,0.00
2014-4-11,85,72,62,60,56,50,76,59,41,29.15,29.03,19,8,19,0.00
2014-4-12,84,73,66,63,59,56,78,64,44,29.09,28.94,22,9,22,0.00
2014-4-13,77,72,68,68,64,59,87,77,70,28.97,28.79,24,6,24,0.00
2014-4-14,72,58,46,69,45,29,88,64,39,29.35,28.82,25,7,25,0.24
2014-4-15,65,52,41,32,26,22,54,38,21,29.44,29.24,14,4,14,0.00
2014-4-16,71,57,44,44,36,25,59,44,36,29.24,29.03,22,7,22,0.00
2014-4-17,67,60,56,59,54,44,93,79,59,29.26,29.09,10,4,14,0.00
2014-4-18,76,66,60,62,56,50,95,74,46,29.32,29.20,9,2,9,0.00
2014-4-19,78,67,57,58,53,49,81,61,42,29.29,29.18,13,4,13,0.00
2014-4-20,72,67,62,64,59,53,90,76,62,29.26,29.15,15,5,15,0.00
2014-4-21,84,72,64,66,61,55,89,71,50,29.18,29.03,18,5,18,0.00
2014-4-22,85,74,65,65,57,51,86,57,37,29.18,29.03,12,3,12,0.00
2014-4-23,86,75,64,64,59,53,80,60,43,29.09,28.88,20,6,20,1.53
2014-4-24,94,76,66,66,54,19,83,55,10,29.06,28.91,18,5,18,0.00
2014-4-25,88,75,62,59,49,37,62,40,28,29.15,28.97,13,4,13,0.00
2014-4-26,83,73,66,68,64,59,84,74,57,29.03,28.76,17,6,17,1.53
2014-4-27,94,81,73,71,61,39,85,57,17,28.79,28.61,20,7,20,0.00
2014-4-28,90,79,65,59,15,-20,62,21,2,28.88,28.73,24,4,24,0.00
2014-4-29,82,72,61,38,11,-20,35,16,2,29.12,28.76,21,5,21,0.00
2014-4-30,74,65,57,33,24,-12,30,23,4,29.29,29.09,17,5,17,0.00
2014-5-1,78,64,51,38,13,-20,49,23,2,29.29,29.15,12,2,12,0.00
2014-5-2,81,67,51,40,11,-20,45,20,2,29.20,29.09,15,3,15,0.00
2014-5-3,92,75,60,44,10,-19,35,16,2,29.20,29.09,15,4,15,0.00
2014-5-4,89,77,66,19,-7,-20,15,4,2,29.24,29.09,17,8,18,0.00
2014-5-5,90,75,63,59,49,-14,66,43,3,29.15,28.94,18,8,18,0.00
2014-5-6,86,72,64,65,59,48,81,63,45,29.00,28.88,21,8,21,0.00
2014-5-7,87,75,70,68,63,60,80,67,46,29.00,28.91,25,9,25,0.00
2014-5-8,85,75,67,73,69,61,91,81,63,29.00,28.91,25,7,25,0.67
2014-5-9,84,75,67,74,65,54,91,72,36,29.09,28.97,25,5,25,0.00
2014-5-10,89,75,61,66,62,57,90,66,42,29.09,28.94,16,5,16,0.00
2014-5-11,90,78,70,68,66,63,86,68,44,29.00,28.85,22,8,22,0.00
2014-5-12,82,74,62,76,70,59,93,85,78,29.12,28.94,18,7,18,1.30
2014-5-13,64,58,54,60,52,48,94,81,56,29.35,29.00,15,5,17,1.06
2014-5-14,73,62,50,53,44,35,92,59,28,29.38,29.26,18,5,18,0.16
2014-5-15,81,66,50,49,41,36,68,43,22,29.41,29.24,15,4,15,0.00
2014-5-16,86,73,62,48,40,32,46,32,20,29.26,29.09,20,8,20,0.00
2014-5-17,85,72,61,56,48,36,64,43,29,29.15,29.03,22,9,22,0.00
2014-5-18,84,72,62,62,56,47,86,59,40,29.20,29.09,17,7,17,0.00
2014-5-19,85,74,66,62,58,54,78,60,41,29.18,29.06,22,9,22,0.00
2014-5-20,86,76,67,62,60,56,79,60,41,29.20,29.12,19,8,19,0.00
2014-5-21,88,77,70,66,62,58,81,62,41,29.20,29.09,20,8,20,0.00
2014-5-22,86,76,69,69,65,59,87,70,53,29.24,29.12,17,6,17,0.00
2014-5-23,83,74,70,68,65,62,87,75,56,29.20,29.12,16,6,16,0.00
2014-5-24,84,74,69,71,68,65,91,82,64,29.18,29.03,13,5,17,1.26
2014-5-25,83,74,66,73,67,62,92,80,60,29.20,29.03,15,4,15,0.00
2014-5-26,72,68,64,66,64,61,93,88,79,29.20,29.03,23,5,23,0.67
2014-5-27,73,67,62,68,65,60,95,92,84,29.15,28.97,25,3,25,0.67
2014-5-28,83,74,68,69,66,62,96,78,52,29.09,29.00,14,3,14,0.67
2014-5-29,88,75,63,69,63,60,92,67,42,29.06,28.94,8,2,13,0.00
2014-5-30,92,78,66,70,64,61,88,64,37,29.03,28.94,12,2,12,0.00
2014-5-31,91,80,69,70,66,62,87,66,42,29.06,29.00,10,2,10,0.00
2014-6-1,87,77,70,74,68,62,91,75,48,29.09,29.00,15,3,15,0.00
2014-6-2,90,80,72,71,68,64,87,68,46,29.12,29.00,15,6,15,0.00
2014-6-3,89,80,73,73,70,67,89,73,50,29.18,29.06,11,4,11,0.00
2014-6-4,89,80,73,71,69,66,87,70,48,29.06,28.97,17,6,17,0.00
2014-6-5,89,80,73,72,69,67,83,70,52,29.03,28.94,17,8,17,0.00
2014-6-6,90,80,72,71,69,67,88,69,50,29.12,29.00,17,6,17,0.00
2014-6-7,91,81,72,72,68,66,88,67,46,29.12,29.00,19,7,19,0.00
2014-6-8,87,79,74,76,70,65,89,74,56,29.15,28.94,24,6,24,3.70
2014-6-9,83,76,66,73,69,62,92,80,70,29.06,28.91,19,5,19,0.40
2014-6-10,90,77,65,69,59,54,88,58,33,29.09,28.97,17,4,17,0.00
2014-6-11,93,81,67,71,64,57,82,59,38,29.06,28.94,16,4,16,0.00
2014-6-12,90,82,66,74,71,62,87,70,59,29.09,28.85,34,7,34,0.31
2014-6-13,90,78,67,73,68,64,93,73,51,29.15,29.03,11,4,11,0.43
2014-6-14,85,79,74,72,70,67,88,75,63,29.12,29.00,17,6,17,0.43
2014-6-15,90,82,75,72,69,65,86,68,45,29.09,29.00,18,8,18,0.43
2014-6-16,91,82,75,74,70,66,88,68,45,29.18,29.06,15,8,17,0.43
2014-6-17,91,82,75,72,69,64,86,65,44,29.15,29.03,24,8,24,0.43
2014-6-18,90,82,76,74,69,64,88,68,46,29.15,29.06,23,8,23,0.00
2014-6-19,90,82,75,73,68,62,86,64,43,29.18,29.12,15,6,15,0.00
2014-6-20,90,80,74,72,68,64,88,70,45,29.24,29.12,13,4,13,0.00
2014-6-21,90,81,73,73,69,64,89,70,44,29.20,29.03,13,5,13,0.00
2014-6-22,88,80,75,72,69,65,85,70,50,29.09,28.97,16,6,16,0.00
2014-6-23,88,79,69,73,71,63,89,78,59,29.15,29.00,25,5,25,1.50
2014-6-24,92,80,73,74,70,66,90,73,46,29.18,29.09,19,5,19,0.00
2014-6-25,89,79,72,75,70,65,91,76,45,29.18,29.09,22,5,22,0.00
2014-6-26,88,78,70,75,70,67,92,78,56,29.18,29.00,17,6,17,0.00
2014-6-27,89,80,73,73,70,68,87,72,51,29.09,28.97,26,8,26,0.00
2014-6-28,91,82,75,74,71,69,88,71,52,29.12,29.00,24,9,24,0.00
2014-6-29,94,83,76,73,71,67,83,67,45,29.18,29.09,22,9,22,0.00
2014-6-30,94,83,76,72,68,62,81,62,37,29.15,29.03,21,9,21,0.00
2014-7-1,94,84,74,72,66,61,88,58,37,29.15,29.06,17,7,17,0.00
2014-7-2,96,83,73,72,66,58,88,60,30,29.20,29.15,11,4,11,0.00
2014-7-3,95,80,73,69,66,59,80,64,35,29.29,29.18,13,3,18,0.00
2014-7-4,93,80,72,70,64,59,81,62,34,29.35,29.26,15,3,15,0.00
2014-7-5,93,79,70,69,66,64,85,65,40,29.35,29.20,16,4,20,0.00
2014-7-6,93,82,71,72,67,62,91,65,39,29.24,29.09,16,5,16,0.00
2014-7-7,95,84,73,67,63,59,78,53,32,29.18,29.09,15,6,15,0.00
2014-7-8,95,84,74,71,65,59,86,56,31,29.20,29.12,15,6,15,0.00
2014-7-9,96,84,73,69,62,54,81,50,29,29.24,29.12,17,6,17,0.00
2014-7-10,93,82,71,70,64,58,84,57,36,29.26,29.12,18,5,18,0.00
2014-7-11,92,80,71,71,64,56,85,61,32,29.29,29.20,17,5,17,0.00
2014-7-12,95,83,71,72,62,56,89,54,27,29.32,29.20,15,4,15,0.00
2014-7-13,98,86,74,69,64,60,80,51,31,29.26,29.15,13,4,13,0.00
2014-7-14,99,86,75,68,64,58,74,50,30,29.20,29.06,13,4,13,0.00
2014-7-15,89,79,71,75,67,60,91,68,43,29.20,29.12,17,3,17,0.56
2014-7-16,92,80,70,75,70,64,93,74,43,29.18,29.00,15,3,15,0.00
2014-7-17,88,79,75,75,72,68,91,78,64,29.09,28.94,15,4,15,0.08
2014-7-18,76,73,70,73,70,68,94,90,81,29.15,29.06,17,2,17,6.62
2014-7-19,86,76,68,72,68,65,90,78,62,29.18,29.09,9,2,9,0.00
2014-7-20,93,82,72,77,72,68,89,73,51,29.18,29.09,11,4,11,0.00
2014-7-21,95,85,75,75,71,67,89,66,42,29.20,29.09,13,4,13,0.00
2014-7-22,95,85,75,73,68,62,88,60,38,29.24,29.15,12,3,12,0.00
2014-7-23,96,86,76,74,68,62,84,58,36,29.24,29.12,10,2,10,0.00
2014-7-24,94,83,75,74,68,64,86,62,39,29.20,29.09,9,2,9,0.00
2014-7-25,96,86,72,72,67,61,79,55,36,29.29,29.09,14,4,14,0.00
2014-7-26,98,86,75,73,68,62,88,58,35,29.20,29.09,15,6,15,0.00
2014-7-27,98,86,74,73,67,61,84,57,31,29.24,29.15,15,6,15,0.00
2014-7-28,98,85,72,71,65,57,82,54,28,29.29,29.18,15,4,15,0.00
2014-7-29,98,84,74,71,67,63,82,59,35,29.26,29.18,13,3,13,0.00
2014-7-30,96,85,74,70,64,55,82,52,31,29.20,29.06,17,6,17,0.00
2014-7-31,95,83,77,72,66,54,79,58,38,29.18,29.06,17,5,17,0.00
2014-8-1,88,80,72,66,62,59,79,56,42,29.29,29.12,13,4,15,0.00
2014-8-2,90,78,68,68,63,59,88,64,39,29.26,29.15,11,2,11,0.00
2014-8-3,93,80,70,68,63,59,84,58,37,29.24,29.09,15,2,15,0.00
2014-8-4,95,82,72,71,66,62,83,61,38,29.29,29.09,13,2,13,0.00
2014-8-5,97,85,73,70,66,60,80,56,31,29.24,29.12,14,3,14,0.00
2014-8-6,97,86,74,71,66,59,85,55,33,29.20,29.06,12,4,12,0.00
2014-8-7,101,88,76,74,66,58,85,53,28,29.15,29.00,17,6,17,0.00
2014-8-8,102,88,76,73,66,58,86,53,28,29.15,29.03,15,6,15,0.00
2014-8-9,99,87,77,71,65,58,79,51,30,29.20,29.06,14,5,14,0.00
2014-8-10,100,88,77,71,66,58,78,51,28,29.20,29.09,14,5,14,0.00
2014-8-11,97,82,74,72,69,62,89,67,37,29.24,29.15,12,3,12,0.00
2014-8-12,98,84,72,75,65,49,92,60,30,29.24,29.09,12,2,12,0.00
2014-8-13,97,84,70,58,54,47,56,36,27,29.26,29.15,13,2,13,0.00
2014-8-14,96,84,71,65,57,52,65,42,28,29.24,29.09,14,3,14,0.00
2014-8-15,99,86,74,72,65,57,84,53,30,29.20,29.03,15,5,15,0.00
2014-8-16,101,88,77,73,66,57,81,52,28,29.15,29.03,17,6,17,0.00
2014-8-17,98,85,79,73,69,61,77,60,31,29.18,29.06,13,5,13,0.00
2014-8-18,99,86,77,73,68,60,81,58,33,29.18,29.00,17,6,17,0.00
2014-8-19,96,83,75,70,66,59,80,58,36,29.15,29.03,17,5,17,0.00
2014-8-20,99,86,77,73,67,60,83,57,31,29.18,29.06,18,8,18,0.00
2014-8-21,99,87,79,73,67,58,82,55,28,29.24,29.12,21,8,22,0.00
2014-8-22,100,87,77,71,65,56,80,52,27,29.26,29.12,18,7,18,0.00
2014-8-23,99,86,73,71,65,58,87,54,30,29.20,29.03,17,5,17,0.00
2014-8-24,99,87,75,72,66,58,85,53,31,29.15,29.00,13,5,13,0.00
2014-8-25,100,87,76,72,64,57,81,50,27,29.15,29.03,12,4,12,0.00
2014-8-26,99,85,78,72,66,60,71,53,33,29.20,29.09,13,3,13,0.00
2014-8-27,96,85,74,72,65,53,86,55,32,29.20,29.09,11,3,11,0.00
2014-8-28,97,83,72,72,67,58,82,60,36,29.15,28.97,17,4,17,0.00
2014-8-29,96,83,76,74,70,64,88,68,39,29.09,29.00,14,4,17,0.00
2014-8-30,96,84,74,74,69,63,88,66,39,29.12,29.00,13,4,13,0.00
2014-8-31,97,84,74,73,69,66,87,64,40,29.15,29.03,16,6,16,0.00
2014-9-1,98,85,76,74,69,64,88,62,36,29.12,29.00,17,7,17,0.00
2014-9-2,98,86,76,74,70,65,87,62,38,29.12,29.06,17,6,17,0.00
2014-9-3,98,84,75,75,68,60,89,64,33,29.18,29.06,17,5,17,0.00
2014-9-4,96,82,76,76,69,64,90,67,40,29.20,29.12,22,5,22,0.00
2014-9-5,98,83,75,75,70,61,91,69,33,29.24,29.09,17,4,17,0.00
2014-9-6,96,83,74,74,69,62,89,66,36,29.24,29.09,13,2,13,0.00
2014-9-7,87,78,72,73,70,68,91,76,55,29.24,29.12,9,2,9,0.00
2014-9-8,96,82,71,72,67,62,90,63,37,29.20,29.09,10,2,10,0.00
2014-9-9,96,85,75,71,66,60,81,56,37,29.15,29.00,15,5,15,0.00
2014-9-10,98,86,76,71,67,61,83,57,35,29.06,28.94,17,7,17,0.00
2014-9-11,97,85,72,72,68,60,86,59,35,29.15,29.03,24,5,24,1.96
2014-9-12,90,78,65,75,69,60,89,74,44,29.29,29.12,15,4,17,0.00
2014-9-13,66,62,59,62,58,54,89,86,81,29.38,29.29,11,4,15,0.95
2014-9-14,78,68,63,68,64,60,92,85,70,29.35,29.24,6,1,6,0.00
2014-9-15,88,76,68,70,67,65,90,75,54,29.29,29.18,10,2,10,0.00
2014-9-16,94,80,73,75,70,64,91,73,41,29.26,29.09,13,2,13,0.00
2014-9-17,92,80,74,77,73,71,94,81,55,29.15,29.00,13,3,13,1.18
2014-9-18,88,76,70,77,71,68,95,87,64,29.09,28.97,12,3,12,3.43
2014-9-19,82,76,72,78,73,71,96,90,79,29.12,29.03,9,2,9,0.00
2014-9-20,86,77,73,77,73,70,95,87,69,29.18,29.06,9,2,9,0.00
2014-9-21,90,80,72,75,69,63,93,70,43,29.24,29.15,10,2,12,0.00
2014-9-22,90,78,68,71,66,63,89,67,44,29.32,29.20,10,1,10,0.00
2014-9-23,84,74,66,65,56,51,71,55,39,29.32,29.20,9,3,9,0.00
2014-9-24,85,72,61,58,53,48,78,53,33,29.32,29.24,9,2,10,0.00
2014-9-25,85,73,61,64,58,49,82,62,45,29.32,29.24,11,2,11,0.00
2014-9-26,85,75,66,67,63,60,86,68,49,29.29,29.18,11,2,11,0.00
2014-9-27,78,73,69,70,66,63,90,78,64,29.24,29.12,8,1,8,0.00
2014-9-28,87,74,64,71,62,58,94,69,41,29.20,29.12,11,1,11,0.00
2014-9-29,89,77,66,67,61,56,87,61,38,29.18,29.06,10,1,10,0.00
2014-9-30,89,77,65,68,62,59,82,62,41,29.06,28.94,11,2,11,0.00
2014-10-1,91,80,74,71,68,64,88,69,45,29.03,28.91,13,5,13,0.00
2014-10-2,92,81,76,75,70,54,86,71,43,29.15,28.97,17,7,17,0.00
2014-10-3,84,74,66,54,48,40,58,40,27,29.35,29.15,15,4,16,0.00
2014-10-4,79,69,58,48,44,41,58,43,31,29.38,29.15,13,4,13,0.00
2014-10-5,85,74,66,65,60,48,81,64,41,29.15,28.97,17,7,19,0.00
2014-10-6,88,77,71,72,67,64,90,73,50,29.09,29.00,15,5,15,0.00
2014-10-7,92,81,72,72,66,59,88,65,38,29.15,29.06,16,6,16,0.00
2014-10-8,89,80,72,72,67,61,89,67,41,29.24,29.12,17,6,17,0.00
2014-10-9,90,81,74,72,68,63,87,67,42,29.18,29.06,18,7,18,0.00
2014-10-10,91,82,74,71,67,62,83,64,44,29.15,29.03,18,7,18,0.00
2014-10-11,78,65,59,70,60,55,92,82,74,29.29,29.12,14,4,14,0.43
2014-10-12,75,65,59,72,61,56,91,87,80,29.20,28.91,13,2,13,0.08
2014-10-13,76,69,58,72,55,42,90,63,38,29.24,28.85,28,10,28,0.28
2014-10-14,78,64,52,46,42,38,74,47,25,29.35,29.20,15,4,15,0.00
2014-10-15,86,68,49,52,44,38,81,47,22,29.29,29.15,9,2,10,0.00
2014-10-16,86,72,61,51,44,38,45,36,25,29.18,29.06,17,5,17,0.00
2014-10-17,87,74,63,62,56,45,76,55,36,29.18,29.06,13,4,13,0.00
2014-10-18,86,75,68,68,62,57,87,66,41,29.26,29.15,8,2,8,0.00
2014-10-19,82,72,66,66,61,58,87,70,49,29.29,29.20,10,3,10,0.00
2014-10-20,81,72,64,66,60,54,90,69,43,29.29,29.18,10,2,10,0.00
2014-10-21,81,70,58,63,54,44,87,60,35,29.29,29.18,10,2,10,0.00
2014-10-22,82,71,61,61,55,48,75,58,42,29.32,29.24,12,2,12,0.00
2014-10-23,83,72,66,63,58,54,83,62,44,29.35,29.24,10,3,10,0.00
2014-10-24,85,72,62,60,57,55,80,60,42,29.38,29.26,9,3,9,0.00
2014-10-25,88,75,66,60,57,54,70,55,38,29.38,29.26,10,3,10,0.00
2014-10-26,86,74,66,60,55,47,74,54,36,29.29,29.12,15,5,15,0.00
2014-10-27,84,74,66,63,59,54,83,62,41,29.15,29.03,20,8,20,0.00
2014-10-28,82,73,68,66,63,59,86,71,54,29.29,29.12,13,4,13,0.00
2014-10-29,80,71,66,61,58,56,78,64,48,29.41,29.29,13,2,13,0.00
2014-10-30,82,70,63,60,58,55,82,66,47,29.38,29.26,10,3,10,0.00
2014-10-31,74,65,56,60,46,35,89,54,31,29.53,29.32,17,4,17,0.04
2014-11-1,67,56,45,43,37,33,63,49,39,29.59,29.47,14,3,14,0.00
2014-11-2,73,61,50,50,44,34,69,54,42,29.53,29.38,18,6,18,0.00
2014-11-3,74,68,61,62,57,49,81,68,59,29.41,29.29,17,6,17,0.00
2014-11-4,72,66,58,68,62,55,93,87,80,29.41,29.26,25,4,25,0.47
2014-11-5,58,57,54,56,55,53,95,94,93,29.47,29.32,13,3,13,1.65
2014-11-6,63,58,54,55,51,46,95,80,61,29.59,29.44,9,2,9,0.08
2014-11-7,70,60,51,46,40,37,69,49,35,29.53,29.29,10,2,10,0.00
2014-11-8,72,60,48,52,44,38,84,58,39,29.44,29.26,17,3,17,0.00
2014-11-9,74,59,44,46,41,36,81,55,34,29.44,29.18,13,4,13,0.00
2014-11-10,75,65,54,57,49,38,71,56,45,29.18,29.00,29,8,29,0.00
2014-11-11,67,52,41,59,36,24,86,56,40,29.47,29.03,18,6,18,0.00
2014-11-12,48,40,34,24,20,14,51,44,38,29.68,29.47,20,7,20,0.00
2014-11-13,40,35,31,14,10,8,42,35,29,29.80,29.68,17,5,17,0.00
2014-11-14,45,38,30,21,15,10,43,40,37,29.71,29.50,8,2,8,0.00
2014-11-15,47,44,40,45,32,18,91,66,41,29.53,29.29,10,3,10,0.00
2014-11-16,50,45,33,49,42,25,95,90,73,29.50,29.18,20,5,20,0.00
2014-11-17,51,38,28,26,20,14,74,51,29,29.74,29.50,17,4,17,0.00
2014-11-18,56,43,30,29,22,15,66,46,30,29.80,29.65,13,4,13,0.00
2014-11-19,68,53,39,44,35,17,69,51,38,29.65,29.41,17,6,17,0.00
2014-11-20,68,60,51,61,54,42,92,79,62,29.44,29.29,16,5,16,0.00
2014-11-21,75,67,63,68,64,61,95,91,75,29.38,29.29,15,5,15,0.31
2014-11-22,68,63,57,65,62,56,96,95,92,29.35,29.00,20,6,20,1.02
2014-11-23,79,64,55,66,50,34,97,65,30,29.15,28.82,26,5,26,0.00
2014-11-24,64,53,41,40,31,15,72,46,21,29.44,29.15,13,3,13,0.00
2014-11-25,66,49,34,39,31,24,81,52,27,29.62,29.44,15,3,15,0.00
2014-11-26,73,57,40,41,31,25,55,39,22,29.62,29.41,14,4,14,0.00
2014-11-27,64,54,45,32,29,27,50,40,28,29.80,29.59,11,2,11,0.00
2014-11-28,70,58,45,51,40,28,73,53,42,29.62,29.35,19,5,19,0.00
2014-11-29,72,65,58,59,54,47,81,68,54,29.35,29.24,27,9,27,0.00
2014-11-30,77,70,65,62,59,55,85,70,50,29.38,29.26,23,8,23,0.00
2014-12-1,65,48,39,62,36,19,91,63,44,29.71,29.38,19,5,19,0.00
2014-12-2,50,44,38,40,28,19,75,55,46,29.68,29.44,13,3,13,0.00
2014-12-3,56,52,47,54,49,40,92,89,75,29.47,29.38,9,2,9,0.00
2014-12-4,64,60,56,63,59,54,97,95,92,29.44,29.29,10,3,10,0.00
2014-12-5,73,66,59,68,64,56,97,91,75,29.47,29.29,15,5,15,0.00
2014-12-6,68,59,54,56,51,46,90,77,53,29.62,29.47,12,3,12,0.00
2014-12-7,54,52,50,48,46,45,85,82,78,29.65,29.50,8,2,8,0.28
2014-12-8,69,55,49,51,46,43,83,73,50,29.62,29.50,11,2,11,0.00
2014-12-9,67,54,42,53,45,39,92,74,48,29.62,29.47,8,2,8,0.00
2014-12-10,62,57,51,56,48,43,90,73,58,29.50,29.38,10,3,10,0.28
2014-12-11,64,60,57,60,57,55,95,90,85,29.47,29.38,13,4,13,0.04
2014-12-12,68,62,59,61,58,55,92,85,75,29.53,29.44,10,4,11,0.00
2014-12-13,72,62,55,63,57,54,95,84,65,29.50,29.32,13,4,13,0.00
2014-12-14,70,66,61,63,60,58,92,83,71,29.32,29.12,21,6,21,0.00
2014-12-15,71,63,55,62,46,30,92,60,30,29.44,29.15,16,4,16,0.00
2014-12-16,62,54,44,36,31,27,52,43,36,29.62,29.44,14,3,14,0.00
2014-12-17,51,49,46,49,38,31,93,69,47,29.53,29.26,16,3,16,0.00
2014-12-18,59,53,49,58,51,47,96,94,92,29.41,29.29,11,2,11,0.00
2014-12-19,54,50,48,52,47,44,96,90,84,29.47,29.32,10,4,14,0.51
2014-12-20,52,49,47,46,44,43,90,84,74,29.53,29.41,9,2,9,0.00
2014-12-21,57,52,49,51,48,46,92,86,81,29.44,29.15,18,5,18,0.00
2014-12-22,75,63,56,57,47,38,87,61,34,29.15,28.94,23,5,23,0.00
2014-12-23,58,50,41,42,37,31,81,63,50,29.35,28.97,20,5,20,0.04
2014-12-24,55,46,37,33,29,22,70,53,40,29.47,29.32,21,6,21,0.00
2014-12-25,64,51,37,43,31,23,69,47,34,29.44,29.32,28,7,28,0.00
2014-12-26,71,62,55,60,54,43,91,77,60,29.38,29.26,20,6,20,0.00
2014-12-27,64,50,39,62,43,28,95,79,65,29.71,29.35,17,5,17,0.00
2014-12-28,47,39,34,32,27,22,82,64,49,29.71,29.56,14,3,14,0.08
2014-12-29,65,47,30,46,36,25,88,68,47,29.62,29.47,11,3,11,0.00
2014-12-30,48,42,39,42,38,30,94,85,70,29.94,29.62,14,4,14,0.00
2014-12-31,40,37,33,30,26,23,70,65,59,30.03,29.88,13,5,13,0.00
2015-1-1,38,36,33,37,32,26,95,86,67,29.88,29.65,8,2,8,0.43
2015-1-2,40,38,37,39,37,35,96,95,94,29.71,29.47,11,3,11,0.47